Weather History for Geneve-Cointrin, Switzerland

Change the Weather History Date:

Monday, April 1, 2013

  Actual Average Record
Temperature  
Mean Temperature 40 °F -  
Max Temperature 45 °F 56 °F - ()
Min Temperature 34 °F 38 °F - ()
Degree Days  
Heating Degree Days 26    
Moisture  
Dew Point 30 °F    
Average Humidity 68    
Maximum Humidity 93    
Minimum Humidity 38    
Precipitation  
Precipitation 0.01 in 0.08 in - ()
Sea Level Pressure  
Sea Level Pressure 29.63 in    
Wind  
Wind Speed 6 mph ()    
Max Wind Speed 13 mph    
Max Gust Speed -    
Visibility 4.7 miles    
Events Rain    
T = Trace of Precipitation, MM = Missing Value Source: Averaged Metar Reports

Daily Weather History Graph

Daily Weather History Graph

Search for Another Location

Airport:

Trip Planner

Search our weather history database for the weather conditions in past years. The results will help you decide how hot, cold, wet, or windy it might be!

Date:

Astronomy

Apr. 01, 2013 Rise Set
Actual Time 7:15 AM CEST 8:04 PM CEST
Civil Twilight 6:44 AM CEST 8:34 PM CEST
Nautical Twilight 6:08 AM CEST 9:11 PM CEST
Astronomical Twilight 5:30 AM CEST 9:49 PM CEST
Moon 1:10 AM CEST (4/1) 10:30 AM CEST (4/1)
Length of Visible Light 13h 49m
Length of Day
12h 49m
Waning Gibbous, 70% of the Moon is Illuminated
Apr 1
Waning Gibbous
Apr 3
Last Quarter
Apr 10
New
Apr 18
First Quarter
Apr 25
Full

Hourly Weather History & Observations

Time (CEST) Temp. Windchill Dew Point Humidity Pressure Visibility Wind Dir Wind Speed Gust Speed Precip Events Conditions
12:00 AM 37 °F - 26 °F 54% 29.74 in - NNE 8.1 mph - -  
12:20 AM 37.4 °F 32.1 °F 26.6 °F 65% 29.68 in 5.0 mi North 6.9 mph - N/A   Unknown
12:50 AM 35.6 °F 32.8 °F 26.6 °F 70% 29.68 in 5.0 mi Variable 3.5 mph - N/A   Unknown
1:00 AM 34 °F - 26 °F 64% 29.74 in - North 3.5 mph - -  
1:20 AM 35.6 °F 31.7 °F 26.6 °F 70% 29.68 in 5.0 mi NNE 4.6 mph - N/A   Unknown
1:50 AM 35.6 °F 28.6 °F 28.4 °F 75% 29.68 in 5.0 mi NE 9.2 mph - N/A   Unknown
2:00 AM 36 °F - 27 °F 59% 29.72 in 5 mi NE 10.4 mph - -   Haze
2:20 AM 35.6 °F 28.0 °F 28.4 °F 75% 29.65 in 4.3 mi NNE 10.4 mph - N/A   Unknown
2:50 AM 35.6 °F 28.0 °F 28.4 °F 75% 29.65 in 3.7 mi NE 10.4 mph - N/A   Scattered Clouds
3:00 AM 36 °F - 29 °F 66% 29.73 in - NE 11.5 mph - -  
4:00 AM 36 °F - 28 °F 65% 29.71 in - NNE 6.9 mph - -  
4:20 AM 35.6 °F 32.8 °F 28.4 °F 75% 29.65 in 3.7 mi North 3.5 mph - N/A   Mostly Cloudy
4:50 AM 35.6 °F 31.7 °F 28.4 °F 75% 29.65 in 3.7 mi North 4.6 mph - N/A   Mostly Cloudy
5:20 AM 35.6 °F 32.8 °F 28.4 °F 75% 29.65 in 3.7 mi North 3.5 mph - N/A   Overcast
5:50 AM 35.6 °F 32.8 °F 28.4 °F 75% 29.65 in 3.7 mi North 3.5 mph - N/A   Mostly Cloudy
6:00 AM 35 °F - 28 °F 66% 29.70 in - North 4.6 mph - -  
6:20 AM 35.6 °F - 28.4 °F 75% 29.62 in 3.7 mi Variable 2.3 mph - N/A   Overcast
6:50 AM 35.6 °F 31.7 °F 28.4 °F 75% 29.62 in 3.7 mi NNE 4.6 mph - N/A   Overcast
7:00 AM 35 °F - 28 °F 67% 29.68 in - NNE 5.8 mph - -  
7:20 AM 35.6 °F 30.7 °F 28.4 °F 75% 29.62 in 3.1 mi NNE 5.8 mph - N/A   Overcast
7:50 AM 35.6 °F 30.7 °F 28.4 °F 75% 29.62 in 3.7 mi North 5.8 mph - N/A   Overcast
8:00 AM 35 °F - 29 °F 71% 29.67 in 3 mi North 5.8 mph - -   Mist
8:20 AM 35.6 °F 31.7 °F 30.2 °F 81% 29.62 in 3.7 mi North 4.6 mph - N/A   Overcast
8:50 AM 35.6 °F 30.7 °F 28.4 °F 75% 29.62 in 3.7 mi NNE 5.8 mph - N/A   Overcast
9:00 AM 36 °F - 28 °F 65% 29.67 in - NNE 5.8 mph - -  
9:20 AM 35.6 °F 30.7 °F 28.4 °F 75% 29.62 in 4.3 mi NNE 5.8 mph - N/A   Overcast
9:50 AM 37.4 °F 32.1 °F 28.4 °F 70% 29.62 in 5.0 mi NNE 6.9 mph - N/A   Overcast
10:00 AM 37 °F - 27 °F 57% 29.67 in - NNE 9.2 mph - -  
10:20 AM 37.4 °F 31.4 °F 28.4 °F 70% 29.62 in 5.0 mi NNE 8.1 mph - N/A   Overcast
10:50 AM 37.4 °F 31.4 °F 28.4 °F 70% 29.62 in 5.0 mi NNE 8.1 mph - N/A   Overcast
11:20 AM 39.2 °F 34.2 °F 26.6 °F 61% 29.62 in 5.6 mi NNE 6.9 mph - N/A   Mostly Cloudy
11:50 AM 39.2 °F 33.0 °F 28.4 °F 65% 29.62 in 5.6 mi NE 9.2 mph - N/A   Scattered Clouds
12:00 PM 40 °F - 28 °F 51% 29.66 in - NE 11.5 mph - -  
12:20 PM 41.0 °F 35.8 °F 28.4 °F 61% 29.62 in 6.2 mi NE 8.1 mph - N/A   Scattered Clouds
12:50 PM 41.0 °F 34.3 °F 28.4 °F 61% 29.62 in 6.2 mi NE 11.5 mph - N/A   Partly Cloudy
1:00 PM 41 °F - 27 °F 44% 29.65 in - NE 11.5 mph - -  
1:20 PM 42.8 °F 36.6 °F 30.2 °F 61% 29.59 in 6.2 mi NE 11.5 mph - N/A   Partly Cloudy
1:50 PM 42.8 °F 37.0 °F 28.4 °F 57% 29.59 in 6.2 mi NE 10.4 mph - N/A   Partly Cloudy
2:00 PM 42 °F - 28 °F 46% 29.64 in 6 mi NE 11.5 mph - -   Haze
2:20 PM 42.8 °F 37.5 °F 28.4 °F 57% 29.59 in 6.2 mi NE 9.2 mph - N/A   Scattered Clouds
2:50 PM 44.6 °F 38.8 °F 28.4 °F 53% 29.59 in 6.2 mi NE 11.5 mph - N/A   Scattered Clouds
3:00 PM 46 °F - 29 °F 38% 29.62 in - NE 12.7 mph - -  
3:20 PM 44.6 °F 38.8 °F 30.2 °F 57% 29.59 in 6.2 mi NE 11.5 mph - N/A   Scattered Clouds
3:50 PM 44.6 °F 39.2 °F 30.2 °F 57% 29.59 in 6.2 mi ENE 10.4 mph - N/A   Mostly Cloudy
4:00 PM 44 °F - 30 °F 46% 29.61 in - NE 10.4 mph - -  
4:20 PM 44.6 °F 39.7 °F 32.0 °F 61% 29.59 in 6.2 mi NE 9.2 mph - N/A   Mostly Cloudy
4:50 PM 44.6 °F 40.2 °F 32.0 °F 61% 29.56 in 5.6 mi NE 8.1 mph - N/A   Mostly Cloudy
5:20 PM 44.6 °F 39.2 °F 32.0 °F 61% 29.56 in 5.6 mi NE 10.4 mph - N/A   Mostly Cloudy
5:50 PM 42.8 °F 37.5 °F 30.2 °F 61% 29.56 in 5.6 mi NNE 9.2 mph - N/A   Mostly Cloudy
6:00 PM 43 °F - 30 °F 49% 29.60 in - NE 8.1 mph - -  
6:20 PM 42.8 °F 39.3 °F 32.0 °F 66% 29.56 in 5.6 mi NE 5.8 mph - N/A   Mostly Cloudy
6:50 PM 42.8 °F 38.6 °F 32.0 °F 66% 29.56 in 5.0 mi NE 6.9 mph - N/A   Mostly Cloudy
7:00 PM 42 °F - 31 °F 55% 29.61 in - NNE 9.2 mph - -  
7:20 PM 42.8 °F 38.6 °F 32.0 °F 66% 29.59 in 4.3 mi NE 6.9 mph - N/A Rain Light Rain
7:50 PM 41.0 °F 37.1 °F 35.6 °F 81% 29.59 in 4.3 mi NNE 5.8 mph - N/A Rain Light Rain
8:00 PM 40 °F - 34 °F 72% 29.63 in 4 mi NNE 5.8 mph - - Rain Light Rain
8:20 PM 39.2 °F 35.0 °F 35.6 °F 87% 29.59 in 3.7 mi NE 5.8 mph - N/A Rain Light Rain Showers
8:50 PM 39.2 °F 35.9 °F 35.6 °F 87% 29.59 in 3.7 mi NNE 4.6 mph - N/A Rain Light Rain
9:00 PM 40 °F - 36 °F 79% 29.64 in - North 4.6 mph - -  
9:20 PM 39.2 °F - 37.4 °F 93% 29.59 in 3.7 mi Variable 1.2 mph - N/A   Mostly Cloudy
9:50 PM 39.2 °F - 37.4 °F 93% 29.59 in 4.3 mi Variable 1.2 mph - N/A   Mostly Cloudy
10:00 PM 40 °F - 37 °F 85% 29.64 in - West 2.3 mph - -  
10:20 PM 39.2 °F - 37.4 °F 93% 29.59 in 4.3 mi Variable 2.3 mph - N/A   Mostly Cloudy
10:50 PM 39.2 °F 37.0 °F 37.4 °F 93% 29.59 in 4.3 mi SW 3.5 mph - N/A   Mostly Cloudy
11:20 PM 39.2 °F - 37.4 °F 93% 29.59 in 4.3 mi Variable 2.3 mph - N/A   Mostly Cloudy
11:50 PM 39.2 °F 37.0 °F 37.4 °F 93% 29.59 in 4.3 mi SW 3.5 mph - N/A   Mostly Cloudy